This is the latest recevied weather packets stored in our database for station/object PE1BMM-13. If no packets are shown the sender has not sent any weather packets the latest 1 day(s).
| Time | Temp. | Humidity | Pressure | Rain* | Wind** | Luminosity | Snow |
|---|---|---|---|---|---|---|---|
| 1778081326 | 15° C | 65% | 1010.9 hPa | 0 mm | - | - | - |
| 1778081022 | 15° C | 65% | 1010.9 hPa | 0 mm | - | - | - |
| 1778080120 | 14.44° C | 67% | 1010.8 hPa | 0 mm | - | - | - |
| 1778079820 | 14.44° C | 68% | 1010.9 hPa | 0 mm | - | - | - |
| 1778077420 | 15° C | 65% | 1010.7 hPa | 0 mm | - | - | - |
| 1778077114 | 14.44° C | 66% | 1010.7 hPa | 0 mm | - | - | - |
| 1778076815 | 14.44° C | 65% | 1010.8 hPa | 0 mm | - | - | - |
| 1778075914 | 14.44° C | 66% | 1010.7 hPa | 0 mm | - | - | - |
| 1778075614 | 14.44° C | 65% | 1010.6 hPa | 0 mm | - | - | - |
| 1778075318 | 14.44° C | 65% | 1010.6 hPa | 0 mm | - | - | - |
| 1778074718 | 14.44° C | 63% | 1010.7 hPa | 0 mm | - | - | - |
| 1778073814 | 14.44° C | 65% | 1010.6 hPa | 0 mm | - | - | - |
| 1778072612 | 14.44° C | 70% | 1010.5 hPa | 0 mm | - | - | - |
| 1778072312 | 14.44° C | 68% | 1010.5 hPa | 0 mm | - | - | - |
| 1778071706 | 14.44° C | 69% | 1010.5 hPa | 0 mm | - | - | - |
| 1778070788 | 14.44° C | 69% | 1010.5 hPa | 0 mm | - | - | - |
| 1778068080 | 14.44° C | 67% | 1010.4 hPa | 0 mm | - | - | - |
| 1778067780 | 14.44° C | 67% | 1010.3 hPa | 0 mm | - | - | - |
| 1778067481 | 14.44° C | 67% | 1010.3 hPa | 0 mm | - | - | - |
| 1778066880 | 14.44° C | 68% | 1010.4 hPa | 0 mm | - | - | - |
| 1778066580 | 14.44° C | 66% | 1010.3 hPa | 0 mm | - | - | - |
| 1778065680 | 14.44° C | 64% | 1010.2 hPa | 0 mm | - | - | - |
| 1778065373 | 14.44° C | 66% | 1010.3 hPa | 0 mm | - | - | - |
| 1778064760 | 14.44° C | 65% | 1010.4 hPa | 0 mm | - | - | - |
| 1778063842 | 14.44° C | 65% | 1010.3 hPa | 0 mm | - | - | - |
* Rain latest hour (hover to see other rain measurements)
** Current wind speed in m/s (hover to see current wind gust speed)